Weather reports worldwide

Advertisment
Plymouth, United Kingdom (3827): temperature & dewpoint: 09.10.2019 18:00:00 - 15.10.2019 18:00:00 (BST)Plymouth, United Kingdom (3827): wind speed & gusts: 09.10.2019 18:00:00 - 15.10.2019 18:00:00 (BST)Plymouth, United Kingdom (3827): wind direction: 09.10.2019 18:00:00 - 15.10.2019 18:00:00 (BST)Plymouth, United Kingdom (3827): reduced air pressure: 09.10.2019 18:00:00 - 15.10.2019 18:00:00 (BST)Plymouth, United Kingdom (3827): visibility: 09.10.2019 18:00:00 - 15.10.2019 18:00:00 (BST)Plymouth, United Kingdom (3827): precipitation: 09.10.2019 18:00:00 - 15.10.2019 18:00:00 (BST)
Date & Time tt [°C] td [°C] ff [km/h] ff [kn] fx [km/h] fx [kn] dd ppp [hPa] vv [km] rr [mm]
15.10.2019 18:00:00 12,7 11,6 26 14 - - SSW 1005,0 21 0,2
15.10.2019 17:00:00 13,1 9,7 28 15 - - SW 1005,4 30 0,0
15.10.2019 16:00:00 14,9 10,0 26 14 - - SW 1005,5 30 0,0
15.10.2019 15:00:00 15,3 10,8 24 13 - - SW 1005,3 30 0,0
15.10.2019 14:00:00 16,2 12,0 15 8 - - WSW 1004,8 30 0,0
15.10.2019 13:00:00 14,1 11,3 18 10 - - W 1004,9 30 0,0
15.10.2019 12:00:00 13,0 12,1 15 8 - - WNW 1004,8 30 0,0
15.10.2019 11:00:00 12,9 12,1 5 3 - - WSW 1004,5 17 0,0
15.10.2019 10:00:00 11,9 11,9 2 1 - - SW 1004,1 1,3 0,0
15.10.2019 09:00:00 10,2 10,1 2 1 - - NE 1003,9 3,8 0,0
15.10.2019 08:00:00 10,1 9,9 4 2 - - NNE 1003,3 4,1 0,0
15.10.2019 07:00:00 10,4 10,2 5 3 - - E 1002,6 3,6 0,0
15.10.2019 06:00:00 10,6 10,2 4 2 - - NNE 1002,3 3,6 0,0
15.10.2019 05:00:00 11,4 10,8 11 6 - - SW 1002,3 5 0,0
15.10.2019 04:00:00 11,9 11,4 11 6 - - SSW 1002,3 5 0,0
15.10.2019 03:00:00 11,8 11,2 9 5 - - SW 1002,5 5 0,0
15.10.2019 02:00:00 12,3 11,9 15 8 - - SW 1002,3 7 0,0
15.10.2019 01:00:00 12,2 12,1 5 3 - - ESE 1001,9 4,1 0,6
15.10.2019 00:00:00 12,4 12,3 9 5 - - S 1002,1 1,8 0,4
14.10.2019 23:00:00 12,2 12,1 8 4 - - E 1002,2 4,5 0,2
14.10.2019 22:00:00 12,2 12,1 8 4 - - E 1002,2 3,9 0,0
14.10.2019 21:00:00 11,9 11,5 4 2 - - SE 1002,2 8 0,4
14.10.2019 20:00:00 12,8 12,5 11 6 - - SSW 1002,2 7 0,0
14.10.2019 19:00:00 12,7 12,2 11 6 - - S 1001,7 8 0,0
14.10.2019 18:00:00 13,2 12,7 16 9 - - SSW 1001,2 6 0,0
14.10.2019 17:00:00 13,5 13,0 11 6 - - S 1001,5 6 1,8
14.10.2019 16:00:00 13,6 12,9 5 3 - - ESE 1001,3 1,7 1,4
14.10.2019 15:00:00 13,6 12,9 5 3 - - E 1001,9 3,3 1,0
14.10.2019 14:00:00 13,5 12,6 11 6 - - E 1002,4 11 0,0
14.10.2019 13:00:00 13,4 12,5 11 6 - - ESE 1003,1 20 0,2
14.10.2019 12:00:00 13,1 12,3 9 5 - - E 1003,9 11 0,4
14.10.2019 11:00:00 13,2 11,6 11 6 - - ESE 1004,5 30 0,0
14.10.2019 10:00:00 12,4 11,2 9 5 - - E 1005,0 28 0,0
14.10.2019 09:00:00 12,4 10,9 8 4 - - E 1005,3 27 0,0
14.10.2019 08:00:00 12,7 11,1 11 6 - - SE 1005,2 26 0,0
14.10.2019 07:00:00 13,1 10,9 15 8 - - S 1006,0 28 0,0
14.10.2019 06:00:00 13,2 11,4 15 8 - - S 1006,4 26 0,0
14.10.2019 05:00:00 12,4 11,0 9 5 - - ESE 1007,0 25 0,0
14.10.2019 04:00:00 12,7 11,3 11 6 - - SE 1007,5 23 0,0
14.10.2019 03:00:00 13,1 11,6 13 7 - - SE 1008,0 23 0,0
14.10.2019 02:00:00 13,1 12,1 13 7 - - SE 1008,6 20 0,0
14.10.2019 01:00:00 12,9 11,7 16 9 - - SSE 1008,9 22 0,0
14.10.2019 00:00:00 13,0 11,7 16 9 - - SSE 1008,9 21 0,0
13.10.2019 23:00:00 13,0 11,8 16 9 - - S 1009,0 19 0,0
13.10.2019 22:00:00 13,3 11,8 22 12 - - S 1009,5 21 0,0
13.10.2019 21:00:00 13,5 11,9 22 12 - - SSW 1009,1 22 0,0
13.10.2019 20:00:00 13,4 11,7 22 12 - - SSW 1008,7 23 0,0
13.10.2019 19:00:00 13,5 11,9 24 13 - - SSW 1008,3 23 0,0
13.10.2019 18:00:00 13,5 11,1 28 15 - - SW 1007,6 27 0,0
13.10.2019 17:00:00 14,5 10,6 28 15 - - SW 1006,9 29 0,0
13.10.2019 16:00:00 15,6 10,8 22 12 - - WSW 1006,5 30 0,0
13.10.2019 15:00:00 15,0 10,5 26 14 - - WSW 1005,6 30 0,0
13.10.2019 14:00:00 14,7 10,6 28 15 48 26 WSW 1004,8 35 0,0
13.10.2019 13:00:00 13,2 10,9 26 14 48 26 W 1004,0 35 0,0
13.10.2019 12:00:00 13,3 12,2 28 15 50 27 W 1002,5 30 0,0
13.10.2019 11:00:00 13,3 13,3 35 19 50 27 SSW 1001,2 24 0,6
13.10.2019 10:00:00 12,3 12,3 13 7 - - S 1000,5 6 0,4
13.10.2019 09:00:00 11,6 11,6 4 2 - - SW 1000,0 8 0,0
13.10.2019 08:00:00 11,3 11,3 4 2 - - NW 999,5 7 0,8
13.10.2019 07:00:00 11,2 11,1 4 2 - - N 999,4 7 0,8
13.10.2019 06:00:00 11,1 11,0 9 5 - - ENE 1000,0 9 1,0
13.10.2019 05:00:00 11,0 10,9 9 5 - - E 1000,9 7 2,6
13.10.2019 04:00:00 10,9 10,8 13 7 - - E 1002,1 3,5 2,0
13.10.2019 03:00:00 10,7 10,6 11 6 - - E 1003,3 3,2 1,8
13.10.2019 02:00:00 10,7 10,5 9 5 - - E 1004,6 3,5 1,4
13.10.2019 01:00:00 10,8 10,7 8 4 - - ENE 1005,2 7 0,6
13.10.2019 00:00:00 10,9 10,7 5 3 - - E 1005,7 4,0 0,2
12.10.2019 23:00:00 11,0 10,6 4 2 - - NNE 1006,6 4,5 0,6
12.10.2019 22:00:00 11,0 10,6 4 2 - - SE 1006,9 4,1 0,6
12.10.2019 21:00:00 11,3 10,9 8 4 - - S 1007,2 5 0,6
12.10.2019 20:00:00 11,7 11,2 13 7 - - S 1007,4 7 0,4
12.10.2019 19:00:00 12,0 11,4 13 7 - - S 1007,6 7 0,4
12.10.2019 18:00:00 12,1 11,3 13 7 - - S 1007,3 12 0,2
12.10.2019 17:00:00 12,4 11,4 15 8 - - S 1007,6 13 0,2
12.10.2019 16:00:00 12,9 11,5 13 7 - - S 1007,9 19 0,0
12.10.2019 15:00:00 12,4 10,9 11 6 - - S 1008,1 25 0,0
12.10.2019 14:00:00 12,7 11,3 13 7 - - S 1008,6 22 0,0
12.10.2019 13:00:00 13,1 11,7 9 5 - - SSW 1008,8 30 0,0
12.10.2019 12:00:00 13,0 11,8 11 6 - - SSW 1008,8 40 0,0
12.10.2019 11:00:00 12,1 11,7 11 6 - - SSW 1008,8 40 0,0
12.10.2019 10:00:00 11,4 11,3 2 1 - - S 1008,4 15 0,0
12.10.2019 09:00:00 10,9 10,8 2 1 - - E 1008,0 3,2 0,2
12.10.2019 08:00:00 11,0 10,8 5 3 - - ENE 1007,4 15 0,2
12.10.2019 07:00:00 11,2 11,0 4 2 - - WNW 1007,6 12 5,6
12.10.2019 06:00:00 11,8 11,6 21 11 - - SSW 1007,5 4,2 1,6
12.10.2019 05:00:00 11,9 11,7 26 14 - - SW 1007,3 7 0,8
12.10.2019 04:00:00 11,7 11,5 21 11 - - SW 1007,4 7 1,0
12.10.2019 03:00:00 11,4 11,0 15 8 - - WSW 1007,7 8 0,4
12.10.2019 02:00:00 11,6 11,3 18 10 - - SW 1007,9 1,5 0,2
12.10.2019 01:00:00 11,4 11,1 15 8 - - WSW 1007,9 17 0,8
12.10.2019 00:00:00 11,4 11,1 18 10 - - SW 1007,9 5 0,2
11.10.2019 23:00:00 11,4 11,0 15 8 - - WSW 1007,6 13 0,8
11.10.2019 22:00:00 11,5 11,1 16 9 - - WSW 1007,6 4,8 1,4
11.10.2019 21:00:00 12,4 12,2 16 9 - - WSW 1007,1 3,6 0,4
11.10.2019 20:00:00 12,4 12,2 18 10 - - WSW 1006,8 10 1,4
11.10.2019 19:00:00 12,9 12,6 21 11 - - SW 1006,7 5 1,4
11.10.2019 18:00:00 13,5 13,1 13 7 - - W 1006,5 4,3 0,4
11.10.2019 17:00:00 14,6 14,5 29 16 61 33 WSW 1006,1 8 0,8
11.10.2019 16:00:00 14,7 14,5 42 23 63 34 SW 1005,7 6 0,0
11.10.2019 15:00:00 14,9 14,5 44 24 68 37 SW 1006,1 6 0,0
11.10.2019 14:00:00 15,2 14,5 52 28 68 37 SSW 1006,2 7 0,0
11.10.2019 13:00:00 15,1 14,5 50 27 68 37 SSW 1006,3 7 0,0
11.10.2019 12:00:00 15,0 14,6 48 26 68 37 SW 1006,7 9 0,2
11.10.2019 11:00:00 14,7 14,5 48 26 67 36 SSW 1006,7 7 0,0
11.10.2019 10:00:00 14,6 14,4 44 24 55 30 SSW 1007,4 3,6 0,8
11.10.2019 09:00:00 14,6 14,4 41 22 61 33 SSW 1007,5 1,9 1,0
11.10.2019 08:00:00 14,4 14,2 35 19 57 31 SW 1007,4 5 0,8
11.10.2019 07:00:00 14,4 14,2 37 20 57 31 SW 1007,7 4,3 0,4
11.10.2019 06:00:00 14,2 14,0 44 24 65 35 SW 1008,5 7 1,2
11.10.2019 05:00:00 14,3 14,0 48 26 78 42 SW 1008,6 4,4 3,4
11.10.2019 04:00:00 14,6 14,4 48 26 67 36 SSW 1009,0 1,4 1,8
11.10.2019 03:00:00 14,7 14,4 44 24 61 33 SSW 1009,9 2,1 0,8
11.10.2019 02:00:00 14,7 14,4 44 24 57 31 SSW 1010,4 3,3 0,4
11.10.2019 01:00:00 15,0 14,4 42 23 57 31 SSW 1010,8 7 0,0
11.10.2019 00:00:00 15,0 14,3 41 22 57 31 SW 1011,2 7 0,0
10.10.2019 23:00:00 15,0 14,4 39 21 52 28 SW 1011,7 7 0,0
10.10.2019 22:00:00 15,0 14,4 35 19 54 29 SW 1012,0 7 0,0
10.10.2019 21:00:00 15,0 14,3 41 22 57 31 SW 1012,2 8 0,0
10.10.2019 20:00:00 14,9 14,2 39 21 61 33 SW 1012,6 9 0,0
10.10.2019 19:00:00 14,9 14,1 39 21 54 29 SW 1013,0 10 0,0
10.10.2019 18:00:00 14,9 14,0 41 22 57 31 SW 1013,2 13 0,0
10.10.2019 17:00:00 15,0 14,1 41 22 57 31 SW 1013,1 13 0,0
10.10.2019 16:00:00 14,8 13,9 39 21 55 30 SW 1013,4 11 0,0
10.10.2019 15:00:00 14,8 13,5 39 21 54 29 SW 1013,7 11 0,0
10.10.2019 14:00:00 15,1 13,0 37 20 52 28 SW 1014,2 15 0,0
10.10.2019 13:00:00 14,7 11,7 37 20 50 27 SW 1015,1 16 0,0
10.10.2019 12:00:00 14,5 11,4 34 18 48 26 SW 1015,1 16 0,0
10.10.2019 11:00:00 15,1 11,1 24 13 - - WSW 1015,3 17 0,0
10.10.2019 10:00:00 14,1 10,9 22 12 - - WSW 1015,1 16 0,0
10.10.2019 09:00:00 12,9 10,6 24 13 - - WSW 1014,8 14 0,0
10.10.2019 08:00:00 12,6 10,5 26 14 - - WSW 1014,4 14 0,0
10.10.2019 07:00:00 11,7 10,1 16 9 - - WSW 1013,8 14 0,0
10.10.2019 06:00:00 11,8 9,6 22 12 - - WSW 1013,3 15 0,0
10.10.2019 05:00:00 11,5 9,2 24 13 - - W 1013,3 16 0,0
10.10.2019 04:00:00 11,2 8,9 22 12 - - W 1013,0 16 0,0
10.10.2019 03:00:00 10,7 8,6 18 10 - - WSW 1012,6 17 0,0
10.10.2019 02:00:00 10,8 8,9 21 11 - - W 1012,0 16 0,0
10.10.2019 01:00:00 10,9 9,2 21 11 - - W 1011,4 19 0,0
10.10.2019 00:00:00 11,0 9,1 21 11 - - W 1010,9 21 0,0
09.10.2019 23:00:00 11,6 9,8 26 14 - - W 1010,6 18 0,0
09.10.2019 22:00:00 11,4 9,4 28 15 - - W 1010,1 21 0,0
09.10.2019 21:00:00 11,4 9,9 24 13 - - W 1009,6 19 0,0
09.10.2019 20:00:00 11,2 10,0 22 12 54 29 W 1009,1 16 1,0
09.10.2019 19:00:00 12,6 9,6 35 19 46 25 W 1008,4 20 0,0
09.10.2019 18:00:00 12,7 10,3 34 18 52 28 W 1008,2 17 0,0

tt = temperature
td = dewpoint
ff = wind speed
fx = gusts
dd = wind direction
ppp = reduced air pressure
vv = visibility
rr = precipitation

Next stations